カタログに戻る

STARLINK-35606

運用中通信VLEO
NORAD 66171·PAYLOAD·🇺🇸 United States

打ち上げ Oct 25, 2025 から Cape Canaveral Space Force Station

Loading…

次のパス (今後24時間)

TLE

最新Source: CelesTrak SupGP

元期: Sep 15, 2026, 03:45 UTC

1 66171C 25240AB  26258.15673611 -.00040122  00000+0 -11852-2 0  2584
2 66171  53.1577 258.5139 0001334  85.1008  13.9932 15.34416065    10

AllMySatでSTARLINK-35606をリアルタイム追跡

Download on the App Store